Regional Weather Roundup
Issued by NWS

Home | Current Version | Previous Version | Graphics & Text | Print | Product List | Glossary On
Versions: 1 2 3 4 5 6 7 8 9 10 11 12 13 14 15 16 17 18 19 20 21 22 23 24 25 26 27 28 29 30 31 32 33 34 35 36 37 38 39 40 41 42 43 44 45 46 47 48 49 50
717
ASUS43 KLSX 232057
RWRMO

WEATHER SUMMARY FOR MISSOURI
NATIONAL WEATHER SERVICE SPRINGFIELD MO
400 PM CDT MON OCT 23 2017

NOTE: "FAIR" INDICATES FEW OR NO CLOUDS BELOW 12,000 FEET WITH NO
       SIGNIFICANT WEATHER AND/OR OBSTRUCTIONS TO VISIBILITY.
       CURRENT SKY AND/OR WEATHER CONDITIONS ARE NOT AVAILABLE FOR
       CHILLICOTHE AND FARMINGTON.

MOZ001>031-035>038-043-044-053-054-232200-
...NORTHERN AND WESTERN MISSOURI...

CITY           SKY/WX    TMP DP  RH WIND       PRES   REMARKS
KANSAS CTY INT MOSUNNY   63  37  38 N18G31    29.97S
KANSAS C DTWN  MOSUNNY   66  37  34 NW21G30   29.96R
LEE`S SUMMIT   MOSUNNY   65  36  34 NW29G38   29.97R
ST JOSEPH      LGT RAIN  67  35  30 NW24G40   29.96F
CHILLICOTHE      N/A     67  41  38 NW9G24    29.91S

$$
MOZ066>068-077>081-088>096-101>105-232200-
...SOUTHWEST MISSOURI...

CITY           SKY/WX    TMP DP  RH WIND       PRES   REMARKS
SPRINGFIELD    SUNNY     67  43  41 N20G28    29.95R
JOPLIN         SUNNY     68  45  43 NW22G28   30.00S
BRANSON        MOSUNNY   66  45  45 W10G23    29.96R

$$
MOZ032>034-039>042-045>050-055>058-069>072-232200-
...CENTRAL MISSOURI...

CITY           SKY/WX    TMP DP  RH WIND       PRES   REMARKS
COLUMBIA       NOT AVBL
JEFFERSON CITY PTSUNNY   66  42  41 NW9       29.85R
ROLLA          MOSUNNY   63  44  50 W21G28    29.86R
SEDALIA        MOSUNNY   67  47  48 NW15G28   29.92R
WARRENSBURG    PTSUNNY   63  41  45 NW18G28   29.95R

$$
MOZ051-052-059>065-232200-
...EAST CENTRAL MISSOURI...

CITY           SKY/WX    TMP DP  RH WIND       PRES   REMARKS
ST LOUIS INTL  MOSUNNY   69  45  41 SW13      29.78F

$$
MOZ072>076-082>087-097>100-106>115-232200-
...SOUTH CENTRAL AND SOUTHEAST MISSOURI...

CITY           SKY/WX    TMP DP  RH WIND       PRES   REMARKS
CAPE GIRARDEAU SUNNY     67  44  43 S10       29.83F
POPLAR BLUFF   SUNNY     73  41  31 SW10      29.82F
WEST PLAINS    SUNNY     70  43  37 W13G22    29.88S

$$



USA.gov is the U.S. government's official web portal to all federal, state and local government web resources and services.